Theta_e
295 297 297 297 298 299 300 302 302 302 303 304 305 306 313 318 321 322 322 322 323 324 323 322 322 323 324 324 324 323 323 324
295 297 297 297 298 299 299 301 303 303 303 304 306 306 306 311 317 320 321 321 321 322 322 322 323 324 324 324 323 323 322 322
295 297 298 297 298 298 299 301 302 302 303 305 306 308 312 310 311 314 319 320 320 321 322 322 322 321 322 322 323 322 321 321
295 296 297 297 297 298 299 299 301 302 304 306 307 309 311 313 316 318 320 320 320 321 320 320 320 322 321 322 321 321 320 320
294 295 295 296 297 296 298 299 300 302 304 305 307 310 312 312 315 317 318 318 319 320 319 319 319 320 320 319 318 318 317 317
294 294 295 296 294 295 295 298 299 301 303 304 305 307 310 313 315 316 316 317 318 318 317 317 316 316 315 315 315 314 313 312
294 294 294 295 295 294 294 295 297 300 301 301 302 306 306 307 310 311 310 311 313 312 313 314 313 312 310 307 304 302 300 300
295 294 294 294 295 294 293 294 296 297 299 300 301 303 304 304 307 306 305 305 306 299 301 300 299 299 299 299 299 299 298 298
295 294 294 294 294 294 294 294 295 295 296 295 296 298 300 301 303 298 299 296 295 296 297 297 297 296 296 296 296 296 296 296
295 294 294 294 293 294 294 294 294 294 294 295 295 293 295 295 295 294 294 295 295 295 295 295 294 295 295 295 295 295 295 295
295 294 294 294 293 293 293 293 294 294 293 293 293 293 294 294 294 294 294 294 294 294 294 294 294 294 294 294 294 294 294 294
295 295 294 294 293 293 293 293 293 293 293 293 293 293 294 293 293 293 293 293 293 293 293 293 293 293 293 293 294 294 293 293
295 295 294 294 293 293 293 293 293 293 292 293 293 293 293 292 292 292 292 292 292 292 292 292 293 293 293 293 293 293 293 293
295 295 295 294 294 293 293 293 293 293 292 292 292 292 292 292 292 292 292 292 292 292 292 293 293 293 293 292 292 292 292 292
295 295 295 295 294 294 293 293 293 292 292 292 292 292 292 292 292 292 292 292 292 292 292 292 292 292 291 291 291 291 291 290
295 295 295 295 295 294 294 293 293 292 292 292 292 292 292 292 292 292 292 292 292 292 292 292 291 291 291 291 290 290 290 291
295 294 295 295 295 295 294 294 293 293 292 292 293 292 292 292 292 292 292 292 292 291 291 291 290 290 290 290 290 290 290 291
297 295 294 294 295 295 295 295 294 293 293 292 292 292 292 292 292 292 291 291 291 290 290 290 290 289 289 290 289 289 289 290
297 296 294 294 295 295 295 295 295 294 293 292 292 292 292 292 292 291 291 291 291 290 289 289 289 289 289 289 289 288 289 289
297 297 295 295 295 294 295 295 295 295 294 293 292 292 292 291 291 291 291 290 290 290 289 289 288 288 288 288 288 288 288 288
Wind_Speed
18 21 22 21 18 16 14 13 13 12 12 13 16 18 22 25 26 22 21 21 17 16 13 11 11 11 13 15 21 28 21 32
19 19 20 19 18 17 16 12 10 9 9 9 10 13 17 20 25 25 17 15 13 12 12 12 12 13 13 14 15 19 21 24
19 16 19 21 19 19 17 15 14 12 8 6 5 4 6 13 16 19 19 15 15 16 16 18 16 15 16 16 18 16 19 19
17 17 17 19 18 17 16 15 15 13 9 6 3 2 7 8 10 14 18 15 17 15 15 12 13 14 15 16 16 18 17 18
15 17 16 16 17 17 15 16 15 14 11 7 5 4 7 12 11 14 9 12 14 12 12 14 14 15 15 11 10 10 10 11
13 15 16 15 17 16 16 15 15 14 12 11 9 6 9 10 14 14 13 12 11 11 11 10 7 6 5 3 4 6 7 7
11 12 14 15 14 16 15 15 14 15 17 17 13 7 8 12 15 13 12 13 14 12 9 7 6 5 3 2 2 1 1 1
7 9 11 13 13 15 15 15 15 16 17 16 15 12 11 8 9 10 12 9 8 14 12 12 12 12 11 8 8 8 8 8
5 7 8 10 11 11 13 13 13 14 14 16 17 21 19 15 15 16 12 16 18 18 18 17 17 15 14 11 12 12 11 11
3 2 4 6 8 9 9 10 10 14 15 17 14 18 19 21 19 17 17 18 18 19 18 18 19 17 15 13 13 12 13 12
5 2 2 5 6 6 7 9 12 15 15 17 14 18 17 19 18 16 16 17 17 17 17 18 19 17 16 15 15 15 14 14
7 4 1 2 3 4 6 7 11 13 13 15 14 15 15 14 15 15 14 15 15 17 18 18 19 19 17 16 16 16 15 15
9 6 3 1 2 2 3 5 8 10 11 11 11 10 11 11 12 12 13 13 15 16 17 17 18 19 18 16 15 15 15 16
11 9 6 3 1 1 2 3 5 7 8 9 10 10 10 9 9 9 10 10 12 13 14 15 15 15 15 15 16 17 17 18
13 12 9 7 5 2 2 3 4 5 5 6 7 7 7 7 7 7 8 9 9 10 11 12 12 13 15 16 16 15 16 15
15 14 13 12 10 7 5 5 5 5 4 4 5 5 5 5 6 6 6 7 7 8 9 10 11 13 14 15 15 16 16 13
18 18 18 17 16 13 11 8 8 8 7 6 5 6 6 6 6 5 5 5 5 5 7 9 11 12 13 14 14 13 11 8
22 18 20 20 20 18 16 14 12 11 10 9 8 8 7 6 6 5 5 5 4 4 4 8 8 8 8 9 9 8 7 7
23 23 23 24 23 23 22 20 17 15 13 12 10 10 10 9 9 8 8 7 6 3 2 3 3 3 4 5 6 5 5 8
26 27 27 28 27 27 26 25 22 19 16 15 14 13 13 13 12 12 11 10 8 5 3 2 1 1 1 1 2 2 4 7
Wind_Direction
352 358 357 354 0 359 351 343 339 323 297 267 251 244 234 234 235 236 247 251 246 234 232 231 247 251 259 262 272 270 274 284
351 359 358 357 5 5 5 2 349 337 331 304 270 244 236 236 236 236 244 243 233 216 226 236 250 261 267 268 282 288 283 283
354 1 1 3 8 10 13 13 10 7 358 346 330 251 224 228 226 223 229 230 220 223 232 231 241 252 265 269 276 271 268 267
357 4 6 8 11 16 23 25 26 23 12 19 7 184 182 176 194 202 207 223 228 232 239 246 255 247 263 265 261 258 259 253
359 6 9 17 16 22 30 35 36 33 20 39 74 153 159 178 178 177 202 232 228 229 238 246 245 248 241 239 237 241 246 254
358 9 15 21 26 29 36 44 50 55 55 60 67 100 153 171 165 163 163 190 201 216 221 196 196 199 203 215 250 261 263 270
353 6 20 25 24 31 39 47 49 61 63 61 59 76 104 131 152 146 143 149 159 160 161 173 166 155 199 221 224 237 310 327
346 6 23 27 37 32 37 49 58 62 60 75 78 84 86 94 116 124 120 111 113 120 120 119 110 102 99 98 108 106 95 82
344 6 22 30 35 39 43 51 58 68 69 73 81 87 81 99 88 101 114 119 108 103 104 108 105 100 90 89 86 82 75 65
294 343 23 36 34 43 56 67 68 77 76 75 71 85 101 100 106 100 100 102 102 99 103 100 98 92 86 83 81 79 72 65
236 259 30 52 32 44 65 78 80 76 75 80 81 86 89 91 94 98 98 96 97 99 96 98 97 97 94 85 79 72 64 59
218 219 206 66 52 41 78 84 87 85 83 81 79 81 84 92 97 96 97 98 100 100 96 90 89 87 84 80 73 68 60 54
217 216 215 130 65 67 96 105 97 92 85 82 85 87 90 90 92 94 95 93 92 93 94 94 90 84 78 73 70 68 61 52
219 219 220 222 219 125 130 119 102 89 79 75 73 72 73 76 83 93 100 106 105 101 97 96 96 97 93 84 73 65 56 47
222 222 220 229 236 232 194 167 143 130 118 107 103 97 97 103 107 110 110 108 107 108 107 105 102 94 84 75 67 64 58 51
227 225 221 222 232 238 232 213 193 180 166 151 135 126 119 119 118 122 125 123 124 123 113 107 104 98 89 78 68 59 55 45
228 225 224 226 226 229 232 230 220 211 205 194 184 176 168 165 157 147 140 137 138 139 143 119 92 81 78 73 66 61 60 51
229 229 227 229 229 230 231 232 232 227 223 219 212 205 195 191 188 181 172 173 173 182 97 76 73 69 72 77 75 69 67 62
232 230 230 232 231 231 233 234 235 234 231 228 225 222 218 212 211 209 204 199 199 194 92 78 68 68 69 75 80 73 71 67
231 230 231 234 233 233 234 235 237 238 238 236 233 229 227 225 222 222 221 216 209 204 201 206 263 333 25 35 70 83 78 70